EW4493 Weather Reports


Display with metric or nautical units.
time (UTC)temp
F
wind
direction
speed
MPH
gust
MPH
rain 1hr
in
rain 24hr
in
rain mn
in
humidity
%
barometer
mb
20200702155315 82 340 0.0 3.0 0.00 0.04 0.00 70 1005.8
20200702154813 82 234 0.0 3.0 0.00 0.04 0.00 67 1005.8
20200702154314 81 87 0.0 5.0 0.00 0.04 0.00 68 1005.9
20200702153811 81 268 0.0 5.0 0.00 0.04 0.00 69 1005.9
20200702153332 81 151 0.0 3.0 0.00 0.04 0.00 70 1005.9
20200702152830 80 124 0.0 3.0 0.00 0.04 0.00 71 1005.9
20200702152328 80 146 0.0 2.0 0.00 0.04 0.00 74 1005.9
20200702151827 79 117 0.0 3.0 0.00 0.04 0.00 71 1006.0
20200702151326 79 257 1.0 5.0 0.00 0.04 0.00 75 1006.0
20200702150825 79 138 1.0 7.0 0.00 0.04 0.00 73 1005.9
20200702150326 79 129 2.0 7.0 0.00 0.04 0.00 71 1005.9
20200702145825 79 223 0.0 4.0 0.00 0.04 0.00 72 1006.0
20200702145322 79 146 0.0 3.0 0.00 0.04 0.00 76 1006.1
20200702144821 78 140 1.0 3.0 0.00 0.04 0.00 72 1006.2
20200702144319 78 165 0.0 2.0 0.00 0.04 0.00 76 1006.2
20200702143819 78 157 0.0 1.0 0.00 0.04 0.00 74 1006.2
20200702143318 77 153 0.0 1.0 0.00 0.04 0.00 77 1006.3
20200702142814 77 150 0.0 2.0 0.00 0.04 0.00 80 1006.3
20200702142313 76 275 0.0 5.0 0.00 0.04 0.00 76 1006.3
20200702141812 76 146 2.0 5.0 0.00 0.04 0.00 77 1006.4
20200702141332 76 5 0.0 3.0 0.00 0.04 0.00 85 1006.5
20200702140829 75 153 0.0 1.0 0.00 0.04 0.00 85 1006.5
20200702140330 74 154 0.0 1.0 0.00 0.04 0.00 83 1006.4
20200702135827 73 155 0.0 1.0 0.00 0.04 0.00 85 1006.5
20200702135326 73 155 0.0 0.0 0.00 0.04 0.00 87 1006.6
20200702134825 72 148 0.0 1.0 0.00 0.04 0.00 88 1006.6
20200702134323 71 148 0.0 1.0 0.00 0.04 0.00 90 1006.6
20200702133821 70 148 0.0 1.0 0.00 0.04 0.00 92 1006.7
20200702133319 69 148 0.0 1.0 0.00 0.04 0.00 93 1006.7
20200702132816 69 181 0.0 2.0 0.00 0.04 0.00 94 1006.7
20200702132314 68 148 0.0 2.0 0.00 0.04 0.00 94 1006.8
20200702131812 67 149 0.0 3.0 0.00 0.04 0.00 95 1006.8
20200702131311 67 148 0.0 3.0 0.00 0.04 0.00 95 1006.8
20200702130812 67 148 0.0 2.0 0.00 0.04 0.00 96 1006.9
20200702130328 67 126 0.0 2.0 0.00 0.04 0.00 97 1006.9
20200702125826 66 22 0.0 1.0 0.00 0.04 0.00 97 1006.8
20200702125326 66 22 0.0 1.0 0.00 0.04 0.00 97 1006.8
20200702124824 65 22 0.0 1.0 0.00 0.04 0.00 97 1006.9
20200702124323 65 22 0.0 1.0 0.00 0.04 0.00 97 1006.8
20200702123822 65 22 0.0 1.0 0.00 0.04 0.00 97 1006.9
20200702123321 65 22 0.0 0.0 0.00 0.04 0.00 97 1006.9
20200702122819 65 22 0.0 0.0 0.00 0.04 0.00 97 1007.0
20200702122318 64 22 0.0 0.0 0.00 0.04 0.00 97 1007.0
20200702121817 64 22 0.0 0.0 0.00 0.04 0.00 97 1007.1
20200702121314 64 22 0.0 1.0 0.00 0.04 0.00 97 1007.1
20200702120813 64 22 0.0 0.0 0.00 0.04 0.00 97 1007.1
20200702120315 64 22 0.0 0.0 0.00 0.04 0.00 97 1007.1
20200702115834 64 22 0.0 1.0 0.00 0.04 0.00 97 1007.1
20200702115331 64 22 0.0 1.0 0.00 0.04 0.00 97 1007.1
20200702114829 64 22 0.0 0.0 0.00 0.04 0.00 97 1007.1
20200702114329 64 22 0.0 0.0 0.00 0.04 0.00 97 1007.2
20200702113829 63 22 0.0 0.0 0.00 0.04 0.00 97 1007.2
20200702113329 63 22 0.0 0.0 0.00 0.04 0.00 97 1007.2
20200702112828 63 22 0.0 0.0 0.00 0.04 0.00 97 1007.1
20200702112327 63 22 0.0 0.0 0.00 0.04 0.00 97 1007.2
20200702111827 63 22 0.0 0.0 0.00 0.04 0.00 97 1007.1
20200702111326 63 22 0.0 0.0 0.00 0.04 0.00 97 1007.1
20200702110823 63 22 0.0 0.0 0.00 0.04 0.00 97 1007.1
20200702110322 62 22 0.0 0.0 0.00 0.04 0.00 97 1007.2
20200702105821 62 22 0.0 0.0 0.00 0.04 0.00 97 1007.2
20200702105321 62 22 0.0 0.0 0.00 0.04 0.00 97 1007.3
20200702104820 62 22 0.0 0.0 0.00 0.04 0.00 97 1007.3
20200702104319 62 22 0.0 0.0 0.00 0.04 0.00 97 1007.4
20200702103818 62 22 0.0 0.0 0.00 0.04 0.00 97 1007.4
20200702103318 62 22 0.0 0.0 0.00 0.04 0.00 97 1007.4
20200702102818 62 22 0.0 0.0 0.00 0.04 0.00 97 1007.3
20200702102316 62 22 0.0 0.0 0.00 0.04 0.00 97 1007.4
20200702101817 62 22 0.0 0.0 0.00 0.04 0.00 97 1007.5
20200702101316 62 22 0.0 0.0 0.00 0.04 0.00 97 1007.4
20200702100816 62 22 0.0 0.0 0.00 0.04 0.00 97 1007.3
20200702100316 62 22 0.0 0.0 0.00 0.04 0.00 97 1007.3
20200702095816 62 22 0.0 0.0 0.00 0.04 0.00 97 1007.3
20200702095315 62 22 0.0 0.0 0.00 0.04 0.00 97 1007.3
20200702094814 62 22 0.0 0.0 0.00 0.04 0.00 97 1007.2
20200702094312 62 22 0.0 0.0 0.00 0.04 0.00 97 1007.2
20200702093814 62 22 0.0 0.0 0.00 0.04 0.00 97 1007.2
20200702093314 62 22 0.0 0.0 0.00 0.04 0.00 97 1007.2
20200702092812 62 22 0.0 0.0 0.00 0.04 0.00 97 1007.2
20200702092331 62 22 0.0 0.0 0.00 0.04 0.00 97 1007.1
20200702091840 62 22 0.0 0.0 0.00 0.04 0.00 97 1007.0
20200702091331 62 22 0.0 0.0 0.00 0.04 0.00 97 1007.1
20200702090830 62 22 0.0 0.0 0.00 0.04 0.00 97 1007.0
20200702090330 62 22 0.0 0.0 0.00 0.04 0.00 97 1007.0
20200702085828 62 22 0.0 0.0 0.00 0.04 0.00 97 1007.0
20200702085328 62 22 0.0 0.0 0.00 0.04 0.00 97 1007.0
20200702084827 62 22 0.0 1.0 0.00 0.04 0.00 97 1006.9
20200702084325 62 22 0.0 0.0 0.00 0.04 0.00 97 1006.9
20200702083823 62 22 0.0 0.0 0.00 0.04 0.00 97 1006.9
20200702083323 62 22 0.0 0.0 0.00 0.04 0.00 97 1006.9
20200702082822 62 22 0.0 1.0 0.00 0.04 0.00 97 1006.8
20200702082319 62 22 0.0 1.0 0.00 0.04 0.00 97 1006.8
20200702081818 62 22 0.0 1.0 0.00 0.04 0.00 97 1006.8
20200702081316 62 22 0.0 0.0 0.00 0.04 0.00 97 1006.8
20200702080815 62 22 0.0 0.0 0.00 0.04 0.00 97 1006.8
20200702080314 62 22 0.0 0.0 0.00 0.04 0.00 97 1006.8
20200702075812 62 22 0.0 0.0 0.00 0.06 0.00 96 1006.8
20200702075313 62 22 0.0 0.0 0.00 0.06 0.00 96 1006.8
20200702074832 62 22 0.0 0.0 0.00 0.06 0.00 96 1006.8
20200702074332 62 22 0.0 0.0 0.00 0.06 0.00 96 1006.7
20200702073830 62 22 0.0 0.0 0.00 0.06 0.00 96 1006.7
20200702073329 62 22 0.0 0.0 0.00 0.06 0.00 96 1006.7
20200702072826 63 22 0.0 0.0 0.00 0.06 0.00 96 1006.7
20200702072325 63 22 0.0 0.0 0.00 0.06 0.00 96 1006.7
20200702071820 63 22 0.0 0.0 0.00 0.06 0.00 96 1006.7
20200702071316 63 22 0.0 1.0 0.00 0.06 0.00 96 1006.8
20200702070814 63 22 0.0 1.0 0.00 0.06 0.00 96 1006.8
20200702070314 63 22 0.0 0.0 0.00 0.06 0.00 96 1006.8
20200702065831 63 22 0.0 0.0 0.00 0.19 0.00 96 1006.8
20200702065332 63 22 0.0 0.0 0.00 0.19 0.00 96 1006.9
20200702064831 63 22 0.0 0.0 0.00 0.19 0.00 96 1006.8
20200702064329 63 22 0.0 0.0 0.00 0.19 0.00 96 1006.9
20200702063826 64 22 0.0 0.0 0.00 0.19 0.00 96 1007.0
20200702063327 64 22 0.0 0.0 0.00 0.19 0.00 96 1007.0
20200702062825 64 22 0.0 0.0 0.00 0.19 0.00 96 1007.0
20200702062324 64 22 0.0 0.0 0.00 0.19 0.00 96 1007.0
20200702061822 64 22 0.0 0.0 0.00 0.19 0.00 96 1007.0
20200702061321 64 22 0.0 0.0 0.00 0.19 0.00 96 1007.0
20200702060821 64 22 0.0 0.0 0.00 0.19 0.00 96 1007.1
20200702060322 64 22 0.0 0.0 0.00 0.19 0.00 96 1007.2
20200702055820 64 22 0.0 0.0 0.00 0.26 0.00 96 1007.2
20200702055318 64 22 0.0 0.0 0.00 0.26 0.00 96 1007.3
20200702054817 64 22 0.0 0.0 0.00 0.26 0.00 96 1007.4
20200702054314 64 22 0.0 0.0 0.00 0.26 0.00 96 1007.4
20200702053813 64 22 0.0 0.0 0.00 0.26 0.00 96 1007.5
20200702053335 64 22 0.0 0.0 0.00 0.26 0.00 96 1007.5
20200702052830 65 22 0.0 0.0 0.00 0.26 0.00 96 1007.5
20200702052326 65 22 0.0 0.0 0.00 0.26 0.00 96 1007.4
20200702051826 65 22 0.0 0.0 0.00 0.26 0.00 96 1007.4
20200702051327 65 22 0.0 0.0 0.00 0.26 0.00 96 1007.4
20200702050827 65 22 0.0 0.0 0.00 0.26 0.00 96 1007.5
20200702050325 65 22 0.0 0.0 0.00 0.26 0.00 96 1007.4
20200702045823 65 22 0.0 0.0 0.00 0.29 0.00 96 1007.4
20200702045324 65 22 0.0 0.0 0.00 0.29 0.00 96 1007.5
20200702044823 65 22 0.0 0.0 0.00 0.29 0.00 96 1007.6
20200702044322 65 22 0.0 0.0 0.00 0.29 0.00 96 1007.6
20200702043821 65 22 0.0 0.0 0.00 0.29 0.00 96 1007.7
20200702043320 65 22 0.0 0.0 0.00 0.29 0.00 96 1007.8
20200702042817 65 22 0.0 0.0 0.00 0.29 0.00 96 1007.9
20200702042315 65 22 0.0 0.0 0.00 0.29 0.00 96 1007.8
20200702041814 65 22 0.0 0.0 0.00 0.29 0.00 96 1007.8
20200702041332 65 22 0.0 0.0 0.00 0.29 0.00 96 1007.8
20200702040832 65 22 0.0 0.0 0.00 0.29 0.00 96 1008.0
20200702040332 65 22 0.0 0.0 0.00 0.29 0.00 96 1008.1
20200702035823 65 22 0.0 0.0 0.00 0.29 0.29 96 1008.1
20200702035321 65 22 0.0 0.0 0.00 0.29 0.29 95 1008.1
20200702034821 65 22 0.0 0.0 0.00 0.29 0.29 95 1008.1
20200702034320 65 22 0.0 0.0 0.00 0.29 0.29 96 1008.0
20200702033820 65 22 0.0 0.0 0.00 0.29 0.29 96 1008.0
20200702033319 65 22 0.0 0.0 0.00 0.29 0.29 95 1008.0
20200702032818 65 22 0.0 0.0 0.00 0.29 0.29 95 1008.1
20200702032316 65 22 0.0 0.0 0.00 0.29 0.29 95 1008.2
20200702031815 65 22 0.0 0.0 0.00 0.29 0.29 95 1008.1
20200702031314 65 22 0.0 0.0 0.00 0.29 0.29 95 1008.1
20200702030813 65 22 0.0 0.0 0.00 0.29 0.29 95 1008.2
20200702030333 65 22 0.0 0.0 0.00 0.29 0.29 95 1008.1
20200702025831 65 22 0.0 0.0 0.00 0.29 0.29 95 1008.1
20200702025329 65 22 0.0 0.0 0.00 0.29 0.29 95 1008.1
20200702024828 65 22 0.0 0.0 0.00 0.29 0.29 95 1008.1
20200702024326 65 22 0.0 0.0 0.00 0.29 0.29 95 1008.2
20200702023827 66 22 0.0 0.0 0.00 0.29 0.29 95 1008.3
20200702023325 66 22 0.0 0.0 0.00 0.29 0.29 95 1008.4
20200702022823 66 22 0.0 0.0 0.00 0.29 0.29 95 1008.5
20200702022322 66 22 0.0 0.0 0.00 0.29 0.29 95 1008.6
20200702021822 66 22 0.0 0.0 0.00 0.29 0.29 95 1008.5
20200702021321 66 22 0.0 0.0 0.00 0.29 0.29 95 1008.4
20200702020819 66 22 0.0 0.0 0.00 0.29 0.29 95 1008.4
20200702020320 66 22 0.0 0.0 0.00 0.29 0.29 94 1008.5
20200702015817 65 22 0.0 0.0 0.00 0.29 0.29 94 1008.4
20200702015317 66 22 0.0 0.0 0.00 0.29 0.29 94 1008.3
20200702014817 66 22 0.0 0.0 0.00 0.29 0.29 94 1008.3
20200702014316 66 22 0.0 0.0 0.00 0.29 0.29 93 1008.3
20200702013816 66 22 0.0 0.0 0.00 0.29 0.29 93 1008.2
20200702013316 66 22 0.0 0.0 0.00 0.29 0.29 93 1008.2
20200702012815 66 22 0.0 0.0 0.00 0.29 0.29 93 1008.2
20200702012314 66 22 0.0 0.0 0.00 0.29 0.29 93 1008.3
20200702011815 67 22 0.0 0.0 0.00 0.29 0.29 92 1008.2
20200702011313 67 22 0.0 0.0 0.00 0.29 0.29 92 1008.1
20200702010824 67 22 0.0 0.0 0.00 0.29 0.29 92 1008.0
20200702010323 67 22 0.0 0.0 0.00 0.29 0.29 92 1007.9
20200702005821 68 22 0.0 0.0 0.00 0.29 0.29 91 1007.9
20200702005320 68 22 0.0 0.0 0.00 0.29 0.29 92 1007.9
20200702004818 68 22 0.0 0.0 0.00 0.29 0.29 92 1007.9
20200702004317 69 22 0.0 0.0 0.00 0.29 0.29 92 1007.8
20200702003815 69 22 0.0 0.0 0.00 0.29 0.29 92 1007.8
20200702003315 69 22 0.0 0.0 0.00 0.29 0.29 92 1007.8
20200702002813 69 22 0.0 0.0 0.00 0.29 0.29 92 1007.7
20200702002332 69 22 0.0 0.0 0.00 0.29 0.29 92 1007.7
20200702001824 69 22 0.0 0.0 0.00 0.29 0.29 92 1007.7
20200702001322 69 22 0.0 0.0 0.00 0.29 0.29 92 1007.6
20200702000823 69 22 0.0 0.0 0.00 0.29 0.29 92 1007.7
20200702000321 70 22 0.0 0.0 0.00 0.29 0.29 92 1007.7
20200701235819 70 22 0.0 0.0 0.00 0.29 0.29 92 1007.7
20200701235319 70 22 0.0 0.0 0.00 0.29 0.29 92 1007.7
20200701234818 70 22 0.0 0.0 0.00 0.29 0.29 92 1007.7
20200701234316 70 22 0.0 0.0 0.00 0.29 0.29 91 1007.7
20200701233815 70 22 0.0 0.0 0.00 0.29 0.29 91 1007.7
20200701233315 70 22 0.0 0.0 0.00 0.29 0.29 91 1007.6
20200701232833 70 22 0.0 0.0 0.00 0.29 0.29 90 1007.7
20200701232332 70 22 0.0 0.0 0.00 0.29 0.29 90 1007.7
20200701231832 70 22 0.0 0.0 0.00 0.29 0.29 89 1007.7
20200701231331 70 22 0.0 0.0 0.00 0.29 0.29 89 1007.7
20200701230830 71 22 0.0 0.0 0.00 0.29 0.29 89 1007.8
20200701230330 71 22 0.0 0.0 0.00 0.29 0.29 88 1007.8
20200701225828 71 22 0.0 0.0 0.00 0.29 0.29 88 1007.7
20200701225327 72 22 0.0 0.0 0.00 0.29 0.29 87 1007.8
20200701224826 72 22 0.0 0.0 0.00 0.29 0.29 87 1007.7
20200701224325 72 22 0.0 0.0 0.00 0.29 0.29 86 1007.7
20200701223823 72 22 0.0 0.0 0.00 0.29 0.29 85 1007.6
20200701223323 73 22 0.0 0.0 0.00 0.29 0.29 83 1007.7
20200701222822 73 22 0.0 1.0 0.00 0.29 0.29 82 1007.7
20200701222321 73 22 0.0 1.0 0.00 0.29 0.29 79 1007.5
20200701221821 73 19 0.0 2.0 0.00 0.29 0.29 79 1007.4
20200701221319 74 19 0.0 3.0 0.00 0.29 0.29 80 1007.4
20200701220820 74 258 0.0 5.0 0.00 0.29 0.29 77 1007.2
20200701220318 75 286 0.0 5.0 0.00 0.29 0.29 76 1007.1
20200701215816 75 313 0.0 2.0 0.00 0.29 0.29 76 1007.0
20200701215315 75 329 0.0 6.0 0.00 0.29 0.29 78 1007.0
20200701214814 75 272 1.0 6.0 0.00 0.29 0.29 78 1007.0
20200701214313 75 31 2.0 5.0 0.00 0.29 0.29 77 1006.9
20200701213812 74 5 0.0 5.0 0.00 0.29 0.29 82 1007.0
20200701213313 74 29 1.0 5.0 0.00 0.29 0.29 81 1007.0
20200701212811 73 5 0.0 1.0 0.00 0.29 0.29 84 1007.0
20200701212311 73 5 0.0 4.0 0.00 0.29 0.29 83 1007.1
20200701211810 72 10 1.0 5.0 0.00 0.29 0.29 82 1007.0
20200701211330 72 26 1.0 5.0 0.00 0.29 0.29 84 1007.1
20200701210828 72 5 1.0 5.0 0.00 0.29 0.29 88 1007.2
20200701210328 71 40 0.0 1.0 0.00 0.29 0.29 88 1007.3
20200701205824 70 40 0.0 1.0 0.00 0.29 0.29 90 1007.3
20200701205322 70 40 0.0 1.0 0.00 0.29 0.29 91 1007.4
20200701204821 69 42 0.0 1.0 0.00 0.29 0.29 92 1007.5
20200701204319 69 41 0.0 1.0 0.00 0.29 0.29 93 1007.6
20200701203818 69 42 0.0 0.0 0.01 0.29 0.29 93 1007.6
20200701203318 68 42 0.0 1.0 0.02 0.29 0.29 92 1007.6
20200701202817 68 41 0.0 1.0 0.02 0.29 0.29 93 1007.6
20200701202316 68 42 0.0 0.0 0.03 0.29 0.29 93 1007.6
20200701201815 68 42 0.0 0.0 0.03 0.29 0.29 93 1007.6
20200701201315 68 41 0.0 0.0 0.03 0.29 0.29 94 1007.5
20200701200814 68 42 0.0 0.0 0.03 0.29 0.29 94 1007.6
20200701200314 68 42 0.0 0.0 0.03 0.29 0.29 93 1007.7
20200701195812 68 42 0.0 0.0 0.03 0.29 0.29 93 1007.7
20200701195311 68 42 0.0 0.0 0.03 0.29 0.29 93 1007.8
20200701194829 67 41 0.0 0.0 0.03 0.29 0.29 92 1007.8
20200701194327 67 42 0.0 1.0 0.03 0.29 0.29 92 1008.0
20200701193827 68 42 0.0 1.0 0.02 0.28 0.28 91 1008.1
20200701193328 68 42 0.0 1.0 0.02 0.27 0.27 91 1008.1
20200701192827 68 42 0.0 1.0 0.02 0.27 0.27 90 1008.1
20200701192326 68 41 0.0 1.0 0.01 0.26 0.26 90 1008.2
20200701191826 68 42 0.0 1.0 0.01 0.26 0.26 89 1008.3
20200701191323 69 42 0.0 1.0 0.01 0.26 0.26 89 1008.4
20200701190821 69 41 0.0 1.0 0.01 0.26 0.26 88 1008.6
20200701190321 69 41 0.0 1.0 0.01 0.26 0.26 87 1008.7
20200701185818 70 42 0.0 1.0 0.01 0.28 0.26 86 1008.7
20200701185316 70 42 0.0 1.0 0.01 0.28 0.26 84 1008.6
20200701184813 71 42 0.0 8.0 0.01 0.28 0.26 83 1008.2
20200701184313 71 45 2.0 12.0 0.01 0.28 0.26 81 1008.2
20200701183811 72 39 1.0 12.0 0.00 0.27 0.25 79 1008.2
20200701183326 73 17 5.0 12.0 0.00 0.27 0.25 76 1008.2
20200701182823 74 46 2.0 6.0 0.00 0.27 0.25 77 1008.0
20200701182321 74 154 0.0 1.0 0.00 0.27 0.25 79 1007.9
20200701181821 74 154 0.0 5.0 0.00 0.27 0.25 78 1008.0
20200701181320 74 156 0.0 5.0 0.00 0.27 0.25 75 1007.9
20200701180818 73 41 0.0 2.0 0.00 0.27 0.25 79 1007.8
20200701180317 73 28 0.0 1.0 0.00 0.27 0.25 79 1007.9
20200701175815 72 28 0.0 1.0 0.00 0.27 0.25 82 1008.1
20200701175313 72 28 0.0 1.0 0.00 0.27 0.25 83 1008.1
20200701174811 72 30 0.0 1.0 0.00 0.27 0.25 85 1008.1
20200701174330 71 30 0.0 0.0 0.00 0.27 0.25 87 1008.2
20200701173829 71 29 0.0 0.0 0.00 0.27 0.25 86 1008.4
20200701173329 71 29 0.0 1.0 0.00 0.27 0.25 85 1008.4
20200701172827 72 30 0.0 1.0 0.00 0.27 0.25 85 1008.4
20200701172325 72 360 0.0 1.0 0.00 0.27 0.25 84 1008.3
20200701171824 72 5 0.0 1.0 0.00 0.27 0.25 82 1008.4
20200701171322 72 360 0.0 6.0 0.00 0.27 0.25 81 1008.5
20200701170821 72 5 1.0 6.0 0.00 0.27 0.25 79 1008.5
20200701170321 73 340 0.0 4.0 0.00 0.27 0.25 80 1008.4
20200701165818 74 194 0.0 4.0 0.00 0.27 0.25 79 1008.3
20200701165318 74 282 0.0 4.0 0.00 0.27 0.25 77 1008.3
20200701164818 75 29 0.0 2.0 0.00 0.27 0.25 77 1008.4
20200701164316 75 199 0.0 8.0 0.00 0.27 0.25 75 1008.3
20200701163814 76 200 1.0 9.0 0.00 0.27 0.25 70 1008.3
20200701163313 77 330 2.0 9.0 0.00 0.27 0.25 70 1008.4
20200701162811 78 308 0.0 5.0 0.00 0.27 0.25 72 1008.4
20200701162330 77 271 1.0 4.0 0.00 0.27 0.25 74 1008.4
20200701161836 77 22 0.0 4.0 0.00 0.27 0.25 75 1008.4
20200701161329 77 348 2.0 6.0 0.00 0.27 0.25 72 1008.5
20200701160827 77 337 1.0 6.0 0.00 0.27 0.25 73 1008.5
20200701160326 77 26 1.0 4.0 0.00 0.27 0.25 75 1008.6
20200701155820 77 258 1.0 6.0 0.00 0.29 0.25 77 1008.6